CW3065 Weather Reports


time (UTC)temp
C
wind
direction
speed
KPH
gust
KPH
rain 1hr
cm
rain 24hr
cm
rain mn
cm
humidity
%
barometer
mb
20260508083004 0 313 1.6 9.7 0.00 0.03 0.00 92 1008.2
20260508082004 1 346 0.0 3.2 0.00 0.03 0.00 91 1008.0
20260508080504 1 24 8.0 8.0 0.00 0.03 0.00 91 1008.3
20260508080004 1 259 1.6 3.2 0.00 0.03 0.00 92 1008.4
20260508075504 1 259 3.2 4.8 0.00 0.03 0.00 91 1008.3
20260508075004 1 259 1.6 3.2 0.00 0.03 0.00 92 1008.6
20260508074504 1 259 1.6 8.0 0.00 0.03 0.00 92 1008.5
20260508074004 1 259 4.8 9.7 0.00 0.03 0.00 91 1008.8
20260508073504 1 260 0.0 4.8 0.00 0.03 0.00 91 1008.5
20260508073004 1 260 4.8 4.8 0.00 0.03 0.00 91 1008.7
20260508072504 1 260 1.6 4.8 0.00 0.03 0.00 91 1008.7
20260508072004 1 260 3.2 4.8 0.00 0.03 0.00 91 1008.9
20260508071504 1 32 4.8 8.0 0.00 0.03 0.00 90 1008.8
20260508071003 1 260 1.6 4.8 0.00 0.03 0.00 91 1008.8
20260508065504 1 356 3.2 4.8 0.00 0.03 0.00 90 1008.8
20260508065004 1 340 0.0 0.0 0.00 0.03 0.00 90 1008.9
20260508064504 1 340 1.6 4.8 0.00 0.03 0.00 89 1008.7
20260508064004 1 340 4.8 4.8 0.00 0.03 0.00 89 1008.7
20260508063504 2 340 3.2 4.8 0.00 0.03 0.00 89 1008.7
20260508062504 2 210 3.2 4.8 0.00 0.03 0.00 88 1008.7
20260508062005 2 210 1.6 4.8 0.00 0.03 0.00 87 1008.6
20260508061504 2 210 3.2 8.0 0.00 0.03 0.00 88 1008.5
20260508061004 2 210 0.0 4.8 0.00 0.03 0.00 87 1008.4
20260508060504 2 210 4.8 4.8 0.00 0.03 0.00 86 1008.5
20260508060005 3 358 4.8 4.8 0.00 0.03 0.00 85 1008.4
20260508055504 3 342 3.2 4.8 0.00 0.03 0.03 85 1008.4
20260508055004 3 342 4.8 4.8 0.00 0.03 0.03 85 1008.4
20260508054504 3 342 4.8 11.3 0.00 0.03 0.03 84 1008.5
20260508054004 3 350 6.4 9.7 0.00 0.03 0.03 84 1008.4
20260508053504 3 252 8.0 11.3 0.00 0.03 0.03 84 1008.5
20260508053004 3 252 6.4 9.7 0.00 0.03 0.03 84 1008.6
20260508052004 3 267 4.8 8.0 0.03 0.03 0.03 84 1008.8
20260508051504 4 232 4.8 4.8 0.03 0.03 0.03 84 1009.0
20260508051004 4 232 4.8 8.0 0.03 0.03 0.03 84 1009.0
20260508050505 4 223 4.8 11.3 0.03 0.03 0.03 83 1009.0
20260508050004 4 325 3.2 4.8 0.03 0.03 0.03 83 1009.0
20260508045504 4 325 3.2 8.0 0.03 0.03 0.03 82 1009.0
20260508045004 4 309 3.2 8.0 0.03 0.03 0.03 82 1009.1
20260508044504 4 298 4.8 11.3 0.03 0.03 0.03 83 1009.6
20260508044004 3 243 8.0 11.3 0.03 0.03 0.03 84 1009.3
20260508043004 4 273 8.0 16.1 0.03 0.03 0.03 83 1008.9
20260508041504 4 240 4.8 8.0 0.00 0.00 0.00 81 1008.5
20260508041004 4 188 6.4 14.5 0.00 0.00 0.00 80 1008.3
20260508040504 4 157 8.0 9.7 0.00 0.00 0.00 79 1008.2
20260508040005 5 277 4.8 9.7 0.00 0.00 0.00 78 1008.0
20260508035504 5 314 3.2 4.8 0.00 0.00 0.00 78 1008.0
20260508035004 5 317 4.8 8.0 0.00 0.00 0.00 77 1008.0
20260508034504 5 317 6.4 8.0 0.00 0.00 0.00 77 1008.2
20260508033504 6 317 6.4 9.7 0.00 0.00 0.00 76 1008.2
20260508033005 6 317 4.8 8.0 0.00 0.00 0.00 75 1008.2
20260508032004 6 267 6.4 20.9 0.00 0.00 0.00 73 1008.6
20260508031505 6 242 9.7 20.9 0.00 0.00 0.00 74 1008.8
20260508031004 6 256 11.3 24.1 0.00 0.00 0.00 74 1008.9
20260508030504 6 295 20.9 48.3 0.00 0.00 0.00 70 1008.9
20260508030004 6 303 8.0 16.1 0.00 0.00 0.00 64 1008.2
20260508025504 6 325 9.7 11.3 0.00 0.00 0.00 63 1007.8
20260508024504 7 26 6.4 8.0 0.00 0.00 0.00 60 1007.6
20260508024004 7 34 3.2 4.8 0.00 0.00 0.00 60 1007.4
20260508023504 8 275 4.8 4.8 0.00 0.00 0.00 58 1007.1
20260508022004 8 275 3.2 8.0 0.00 0.00 0.00 56 1007.1
20260508021004 8 275 4.8 4.8 0.00 0.00 0.00 56 1007.1
20260508020504 8 275 3.2 9.7 0.00 0.00 0.00 56 1007.0
20260508020004 8 257 6.4 9.7 0.00 0.00 0.00 55 1007.1
20260508015504 8 255 3.2 8.0 0.00 0.00 0.00 55 1007.2
20260508015004 8 255 4.8 8.0 0.00 0.00 0.00 54 1007.5
20260508014504 9 255 4.8 4.8 0.00 0.00 0.00 54 1007.4
20260508014004 9 255 1.6 4.8 0.00 0.00 0.00 54 1007.3
20260508013504 9 255 1.6 3.2 0.00 0.00 0.00 53 1007.4
20260508013004 10 255 4.8 8.0 0.00 0.00 0.00 52 1007.2
20260508012504 10 255 4.8 11.3 0.00 0.00 0.00 50 1007.2
20260508012004 10 306 3.2 4.8 0.00 0.00 0.00 52 1007.0
20260508011503 10 352 1.6 4.8 0.00 0.00 0.00 52 1007.1
20260508010504 10 352 3.2 4.8 0.00 0.00 0.00 52 1007.1
20260508010004 10 352 4.8 8.0 0.00 0.00 0.00 53 1007.0
20260508005504 10 236 1.6 4.8 0.00 0.00 0.00 53 1006.8
20260508005004 10 225 8.0 16.1 0.00 0.00 0.00 52 1006.8
20260508004004 11 274 4.8 9.7 0.00 0.00 0.00 51 1006.9
20260508003504 11 299 3.2 8.0 0.00 0.03 0.00 53 1007.2
20260508002504 10 340 6.4 12.9 0.00 0.03 0.00 54 1007.5
20260508002004 10 314 8.0 12.9 0.00 0.03 0.00 53 1007.6
20260508001504 10 325 9.7 16.1 0.00 0.03 0.00 54 1007.5
20260508001004 10 306 9.7 22.5 0.00 0.03 0.00 54 1007.8
20260508000503 10 283 12.9 22.5 0.00 0.03 0.00 53 1008.1
20260508000004 10 308 14.5 27.4 0.00 0.03 0.00 52 1008.3
20260507235504 10 307 9.7 24.1 0.00 0.03 0.00 49 1007.9
20260507235004 10 313 9.7 19.3 0.00 0.03 0.00 49 1007.9
20260507234504 11 355 14.5 24.1 0.00 0.05 0.00 48 1007.7
20260507234004 11 345 14.5 24.1 0.00 0.05 0.00 47 1007.5
20260507233504 11 282 19.3 25.7 0.00 0.05 0.00 41 1007.5
20260507233004 11 290 11.3 27.4 0.00 0.05 0.00 40 1007.6
20260507232504 11 258 3.2 9.7 0.00 0.05 0.00 39 1007.7
20260507231504 11 269 8.0 22.5 0.00 0.08 0.00 37 1007.5
20260507230004 12 271 11.3 19.3 0.00 0.10 0.00 36 1007.5
20260507225504 12 289 9.7 25.7 0.00 0.10 0.00 36 1007.6
20260507224504 12 225 6.4 11.3 0.00 0.13 0.00 35 1007.6
20260507223505 11 268 14.5 32.2 0.00 0.15 0.00 37 1007.7
20260507222503 12 244 12.9 20.9 0.00 0.20 0.00 37 1007.6
20260507222004 12 264 4.8 20.9 0.00 0.23 0.00 37 1007.7
20260507221504 12 254 6.4 25.7 0.00 0.25 0.00 37 1007.7
20260507221004 11 247 11.3 20.9 0.00 0.28 0.00 37 1007.8
20260507220504 11 263 14.5 37.0 0.00 0.30 0.00 36 1007.8
20260507220004 11 253 9.7 20.9 0.00 0.36 0.00 36 1008.0
20260507215004 11 295 14.5 38.6 0.00 0.43 0.00 39 1008.6
20260507214503 11 252 16.1 32.2 0.00 0.46 0.00 37 1008.9
20260507214004 11 210 16.1 32.2 0.00 0.51 0.00 36 1008.7
20260507213004 11 233 14.5 24.1 0.00 0.61 0.00 37 1008.9
20260507212004 11 213 11.3 25.7 0.00 0.71 0.00 37 1009.0
20260507211504 11 240 14.5 20.9 0.00 0.74 0.00 35 1009.1
20260507211004 11 264 8.0 16.1 0.00 0.79 0.00 36 1009.3
20260507210504 11 244 11.3 32.2 0.00 0.84 0.00 36 1009.4
20260507210004 11 239 19.3 32.2 0.00 0.89 0.00 36 1009.5
20260507205504 11 238 19.3 32.2 0.00 0.97 0.00 36 1009.8
20260507205004 11 277 6.4 25.7 0.00 1.02 0.00 38 1010.2
20260507204505 11 250 12.9 29.0 0.00 1.07 0.00 37 1010.5
20260507204004 11 264 9.7 19.3 0.00 1.14 0.00 37 1010.4
20260507203504 11 260 11.3 29.0 0.00 1.17 0.00 37 1010.5
20260507203004 11 301 17.7 32.2 0.00 1.22 0.00 37 1010.6
20260507202004 12 270 16.1 27.4 0.00 1.27 0.00 36 1010.4
20260507201505 11 269 8.0 22.5 0.00 1.30 0.00 39 1010.5
20260507201004 11 264 11.3 22.5 0.00 1.32 0.00 38 1010.6
20260507200504 11 258 11.3 27.4 0.00 1.35 0.00 38 1010.7
20260507200004 11 176 4.8 12.9 0.00 1.35 0.00 40 1010.6
20260507195504 11 247 11.3 32.2 0.00 1.37 0.00 39 1010.6
20260507195004 11 258 12.9 25.7 0.00 1.40 0.00 40 1010.6
20260507194504 11 290 4.8 11.3 0.00 1.40 0.00 41 1010.8
20260507193004 9 246 19.3 25.7 0.00 1.42 0.00 43 1011.3
20260507192504 9 242 8.0 19.3 0.00 1.42 0.00 44 1011.1
20260507192004 10 239 11.3 20.9 0.00 1.45 0.00 44 1011.0
20260507191504 9 257 14.5 24.1 0.00 1.45 0.00 44 1011.2
20260507191004 9 240 17.7 25.7 0.00 1.45 0.00 44 1011.0
20260507185504 9 215 14.5 24.1 0.00 1.50 0.00 44 1011.3
20260507185004 10 232 14.5 22.5 0.00 1.50 0.00 43 1011.4
20260507184504 9 241 16.1 25.7 0.00 1.52 0.00 43 1011.5
20260507183504 9 224 19.3 32.2 0.00 1.52 0.00 43 1011.5
20260507183004 9 239 22.5 32.2 0.00 1.55 0.00 44 1011.4
20260507182504 9 246 14.5 32.2 0.00 1.55 0.00 44 1011.4
20260507182004 8 244 20.9 38.6 0.00 1.57 0.00 44 1011.3
20260507181504 8 244 20.9 32.2 0.00 1.57 0.00 44 1011.2
20260507181004 8 240 27.4 37.0 0.00 1.57 0.00 44 1011.0
20260507174504 7 235 22.5 41.8 0.00 1.65 0.00 46 1011.6
20260507174004 8 238 25.7 40.2 0.00 1.68 0.00 45 1011.8
20260507173504 8 248 20.9 38.6 0.00 1.68 0.00 45 1012.0
20260507173004 8 244 24.1 37.0 0.00 1.70 0.00 45 1012.1
20260507172504 8 247 24.1 41.8 0.00 1.70 0.00 45 1012.1
20260507172004 8 249 24.1 35.4 0.00 1.70 0.00 45 1012.1
20260507171504 8 243 11.3 32.2 0.00 1.70 0.00 48 1012.2
20260507171003 7 259 20.9 32.2 0.00 1.70 0.00 49 1012.4
20260507170504 6 242 14.5 32.2 0.00 1.70 0.00 50 1012.6
20260507170005 7 248 19.3 29.0 0.00 1.70 0.00 49 1012.7
20260507165004 7 249 9.7 22.5 0.00 1.70 0.00 49 1013.1
20260507164504 6 252 9.7 19.3 0.00 1.70 0.00 49 1012.9
20260507163504 6 238 16.1 29.0 0.00 1.70 0.00 49 1012.7
20260507163004 7 228 22.5 37.0 0.00 1.70 0.00 47 1012.8
20260507162504 7 236 19.3 32.2 0.00 1.70 0.00 47 1013.0
20260507162004 7 237 19.3 37.0 0.00 1.70 0.00 47 1012.8
20260507161504 6 251 19.3 32.2 0.00 1.70 0.00 48 1013.0
20260507161004 6 246 20.9 29.0 0.00 1.70 0.00 48 1012.9
20260507160504 6 234 19.3 32.2 0.00 1.70 0.00 48 1012.7
20260507160005 6 221 14.5 25.7 0.00 1.70 0.00 50 1012.7
20260507155004 5 217 16.1 32.2 0.00 1.70 0.00 50 1013.0
20260507154504 5 225 9.7 20.9 0.00 1.70 0.00 49 1013.1
20260507154004 5 155 3.2 9.7 0.00 1.70 0.00 51 1013.3
20260507153504 5 207 8.0 27.4 0.00 1.70 0.00 52 1013.4
20260507153004 4 188 16.1 32.2 0.00 1.70 0.00 51 1013.4
20260507152504 4 197 20.9 37.0 0.00 1.70 0.00 50 1013.4
20260507152004 4 201 14.5 27.4 0.00 1.70 0.00 51 1013.5
20260507151504 4 222 17.7 40.2 0.00 1.70 0.00 51 1013.7
20260507151004 4 203 14.5 32.2 0.00 1.70 0.00 50 1013.9
20260507150504 4 192 12.9 24.1 0.00 1.70 0.00 50 1014.2
20260507150005 4 190 16.1 25.7 0.00 1.70 0.00 50 1014.4
20260507145504 3 211 9.7 20.9 0.00 1.70 0.00 51 1014.7
20260507145004 3 227 11.3 20.9 0.00 1.70 0.00 51 1014.9
20260507144004 3 246 19.3 37.0 0.00 1.70 0.00 50 1015.3
20260507143004 3 244 19.3 33.8 0.00 1.70 0.00 51 1015.0
20260507142504 3 238 16.1 32.2 0.00 1.70 0.00 51 1015.1
20260507141504 4 245 16.1 29.0 0.00 1.70 0.00 50 1014.9
20260507141004 4 246 19.3 27.4 0.00 1.70 0.00 50 1014.9
20260507140504 5 262 11.3 24.1 0.00 1.70 0.00 49 1015.0
20260507140004 4 263 3.2 19.3 0.00 1.70 0.00 51 1015.1
20260507135505 4 270 14.5 24.1 0.00 1.70 0.00 52 1015.0
20260507135005 4 136 4.8 32.2 0.00 1.70 0.00 52 1015.2
20260507134504 4 231 4.8 19.3 0.00 1.70 0.00 53 1015.3
20260507134003 3 203 12.9 33.8 0.00 1.70 0.00 52 1015.3
20260507133504 3 223 9.7 19.3 0.00 1.70 0.00 52 1015.3
20260507132504 3 208 11.3 27.4 0.00 1.70 0.00 53 1015.2
20260507132004 3 198 14.5 20.9 0.00 1.70 0.00 53 1015.2
20260507131503 3 191 12.9 22.5 0.00 1.70 0.00 52 1015.2
20260507131004 3 204 14.5 20.9 0.00 1.70 0.00 52 1015.2
20260507130504 3 236 14.5 25.7 0.00 1.70 0.00 52 1015.2
20260507125004 2 228 14.5 24.1 0.00 1.70 0.00 53 1015.2
20260507124504 2 235 14.5 22.5 0.00 1.70 0.00 53 1015.2
20260507124004 2 240 14.5 22.5 0.00 1.70 0.00 52 1015.1
20260507123004 2 236 17.7 24.1 0.00 1.70 0.00 53 1015.2
20260507122504 2 236 16.1 22.5 0.00 1.70 0.00 52 1015.3
20260507122005 2 238 14.5 22.5 0.00 1.70 0.00 53 1015.4
20260507121504 2 245 16.1 24.1 0.00 1.70 0.00 53 1015.4
20260507120504 2 244 14.5 27.4 0.00 1.70 0.00 53 1015.2
20260507115504 2 251 20.9 33.8 0.00 1.70 0.00 53 1015.2
20260507115004 2 248 19.3 29.0 0.00 1.70 0.00 53 1015.4
20260507114504 2 247 9.7 22.5 0.00 1.70 0.00 54 1015.6
20260507114004 2 255 8.0 16.1 0.00 1.70 0.00 54 1015.6
20260507113504 2 249 9.7 19.3 0.00 1.70 0.00 54 1015.6
20260507113004 2 249 12.9 20.9 0.00 1.70 0.00 53 1015.4
20260507112504 2 243 9.7 19.3 0.00 1.70 0.00 53 1015.3
20260507112004 2 268 14.5 24.1 0.00 1.70 0.00 53 1015.3
20260507111506 2 251 11.3 22.5 0.00 1.70 0.00 53 1015.5
20260507111003 2 262 14.5 29.0 0.00 1.70 0.00 52 1015.4
20260507110504 2 243 11.3 24.1 0.00 1.70 0.00 52 1015.6
20260507110004 2 260 9.7 25.7 0.00 1.70 0.00 52 1015.6
20260507105504 2 253 16.1 29.0 0.00 1.70 0.00 51 1015.6
20260507105004 2 255 14.5 32.2 0.00 1.70 0.00 51 1016.0
20260507104004 2 250 20.9 33.8 0.00 1.70 0.00 51 1016.0
20260507103504 2 245 19.3 33.8 0.00 1.70 0.00 51 1015.9
20260507103004 2 244 16.1 32.2 0.00 1.70 0.00 51 1015.9
20260507102504 2 255 16.1 33.8 0.00 1.70 0.00 52 1016.0
20260507102006 2 263 14.5 29.0 0.00 1.70 0.00 52 1016.0
20260507101504 2 255 19.3 32.2 0.00 1.70 0.00 51 1016.0
20260507101004 2 248 14.5 35.4 0.00 1.70 0.00 51 1015.9
20260507100504 2 253 24.1 38.6 0.00 1.70 0.00 51 1015.9
20260507100004 2 247 20.9 32.2 0.00 1.70 0.00 51 1015.9
20260507095504 2 247 20.9 37.0 0.00 1.70 0.00 51 1015.9
20260507094004 2 248 25.7 38.6 0.00 1.70 0.00 51 1015.7
20260507093504 2 250 29.0 46.7 0.00 1.70 0.00 51 1015.5
20260507093003 2 245 29.0 38.6 0.00 1.70 0.00 51 1015.6
20260507092504 2 249 25.7 45.1 0.00 1.70 0.00 51 1015.8
20260507092004 2 257 27.4 41.8 0.00 1.70 0.00 51 1015.8
20260507091503 2 246 24.1 35.4 0.00 1.70 0.00 51 1015.8
20260507091004 2 250 25.7 38.6 0.00 1.70 0.00 51 1015.7
20260507090504 2 254 22.5 37.0 0.00 1.70 0.00 52 1015.8
20260507085504 2 252 19.3 35.4 0.00 1.70 0.00 52 1015.8
20260507085004 2 250 24.1 37.0 0.00 1.70 0.00 52 1015.5
20260507084504 2 248 20.9 33.8 0.00 1.70 0.00 52 1015.5
20260507084004 2 248 20.9 32.2 0.00 1.70 0.00 52 1015.4